Location: Waco, TX
(31.5480°N, 97.1670°W)
Time: 00:51:35
(UTC-06:00)

ISS - Pass Details

Date: 15 January 2018
Orbit: 402 x 407 km, 51.6° (Epoch: 21 January)

Event Time Altitude Azimuth Distance (km) Brightness Sun altitude
Rises 06:06:27 0° 325° (NW) 2,322 - -17.3°
Reaches altitude 10° 06:08:43 10° 337° (NNW) 1,461 - -16.8°
Exits shadow 06:09:56 18° 351° (N) 1,060 -2.0 -16.6°
Maximum altitude 06:11:37 29° 40° (NE) 774 -2.2 -16.2°
Drops below altitude 10° 06:14:32 10° 102° (ESE) 1,458 0.4 -15.7°
Sets 06:16:46 0° 114° (ESE) 2,315 1.8 -15.2°
